Time,TemperatureF,DewpointF,PressureIn,WindDirection,WindDirectionDegrees,WindSpeedMPH,WindSpeedGustMPH,Humidity,HourlyPrecipIn,Conditions,Clouds,dailyrainin,SoftwareType,DateUTC
2013-01-30 00:04:00,45.0,43.0,30.02,SSW,201,5.0,-999.0,93,-99.99,,,-99.99,,2013-01-30 05:04:00,
2013-01-30 00:12:00,45.0,43.0,30.02,SSW,201,5.0,-999.0,93,-99.99,,,-99.99,,2013-01-30 05:12:00,
2013-01-30 00:22:00,45.0,43.0,30.00,SSW,192,4.0,-999.0,93,-99.99,,,-99.99,,2013-01-30 05:22:00,
2013-01-30 00:32:00,45.0,43.0,30.00,SW,231,5.0,-999.0,93,-99.99,,,-99.99,,2013-01-30 05:32:00,
2013-01-30 00:43:00,45.0,43.0,30.00,SW,231,5.0,-999.0,93,-99.99,,,-99.99,,2013-01-30 05:43:00,
2013-01-30 00:52:00,46.0,44.0,30.00,SSE,150,5.0,-999.0,92,-99.99,,,-99.99,,2013-01-30 05:52:00,
2013-01-30 01:02:00,46.0,44.0,29.99,South,175,6.0,-999.0,92,-99.99,,,-99.99,,2013-01-30 06:02:00,
2013-01-30 01:12:00,46.0,44.0,29.99,South,175,6.0,-999.0,92,-99.99,,,-99.99,,2013-01-30 06:12:00,
2013-01-30 01:22:00,46.0,44.0,29.98,SW,219,6.0,-999.0,92,-99.99,,,-99.99,,2013-01-30 06:22:00,
2013-01-30 01:32:00,46.0,44.0,29.98,SSW,205,4.0,-999.0,91,-99.99,,,-99.99,,2013-01-30 06:32:00,
2013-01-30 01:42:00,46.0,44.0,29.98,SSW,205,4.0,-999.0,91,-99.99,,,-99.99,,2013-01-30 06:42:00,
2013-01-30 01:52:00,45.0,43.0,29.97,SW,219,4.0,-999.0,91,-99.99,,,-99.99,,2013-01-30 06:52:00,
2013-01-30 02:02:00,46.0,44.0,29.96,WSW,238,3.0,-999.0,92,-99.99,,,-99.99,,2013-01-30 07:02:00,
2013-01-30 02:11:00,46.0,44.0,29.96,WSW,238,3.0,-999.0,92,-99.99,,,-99.99,,2013-01-30 07:11:00,
2013-01-30 02:22:00,46.0,44.0,29.96,SSW,205,3.0,-999.0,92,-99.99,,,-99.99,,2013-01-30 07:22:00,
2013-01-30 02:32:00,46.0,44.0,29.95,WSW,242,1.0,-999.0,92,-99.99,,,-99.99,,2013-01-30 07:32:00,
2013-01-30 02:42:00,46.0,44.0,29.95,WSW,242,1.0,-999.0,92,-99.99,,,-99.99,,2013-01-30 07:42:00,
2013-01-30 02:52:00,46.0,44.0,29.93,West,272,2.0,-999.0,92,-99.99,,,-99.99,,2013-01-30 07:52:00,
2013-01-30 03:02:00,46.0,44.0,29.93,West,272,1.0,-999.0,91,-99.99,,,-99.99,,2013-01-30 08:02:00,
2013-01-30 03:11:00,46.0,44.0,29.93,West,272,1.0,-999.0,91,-99.99,,,-99.99,,2013-01-30 08:11:00,
2013-01-30 03:22:00,45.0,43.0,29.91,SW,223,2.0,-999.0,91,-99.99,,,-99.99,,2013-01-30 08:22:00,
2013-01-30 03:32:00,43.0,40.0,29.90,SW,224,1.0,-999.0,90,-99.99,,,-99.99,,2013-01-30 08:32:00,
2013-01-30 03:42:00,43.0,40.0,29.90,SW,224,1.0,-999.0,90,-99.99,,,-99.99,,2013-01-30 08:42:00,
2013-01-30 03:52:00,43.0,41.0,29.90,SW,224,1.0,-999.0,91,-99.99,,,-99.99,,2013-01-30 08:52:00,
2013-01-30 04:02:00,44.0,42.0,29.88,SSW,205,2.0,-999.0,93,-99.99,,,-99.99,,2013-01-30 09:02:00,
2013-01-30 04:11:00,44.0,42.0,29.88,SSW,205,2.0,-999.0,93,-99.99,,,-99.99,,2013-01-30 09:11:00,
2013-01-30 04:22:00,46.0,44.0,29.86,WSW,238,4.0,-999.0,93,-99.99,,,-99.99,,2013-01-30 09:22:00,
2013-01-30 04:32:00,47.0,45.0,29.86,South,186,4.0,-999.0,92,-99.99,,,-99.99,,2013-01-30 09:32:00,
2013-01-30 04:42:00,47.0,45.0,29.86,South,186,4.0,-999.0,92,-99.99,,,-99.99,,2013-01-30 09:42:00,
2013-01-30 04:51:00,47.0,44.0,29.86,SW,219,4.0,-999.0,90,-99.99,,,-99.99,,2013-01-30 09:51:00,
2013-01-30 05:02:00,48.0,45.0,29.85,SW,219,5.0,-999.0,88,-99.99,,,-99.99,,2013-01-30 10:02:00,
2013-01-30 05:12:00,48.0,45.0,29.85,SW,219,5.0,-999.0,88,-99.99,,,-99.99,,2013-01-30 10:12:00,
2013-01-30 05:21:00,49.0,45.0,29.85,South,177,5.0,-999.0,86,-99.99,,,-99.99,,2013-01-30 10:21:00,
2013-01-30 05:32:00,50.0,46.0,29.85,WSW,250,5.0,-999.0,86,-99.99,,,-99.99,,2013-01-30 10:32:00,
2013-01-30 05:42:00,50.0,46.0,29.85,WSW,250,5.0,-999.0,86,-99.99,,,-99.99,,2013-01-30 10:42:00,
2013-01-30 05:52:00,51.0,47.0,29.84,SW,217,6.0,-999.0,87,-99.99,,,-99.99,,2013-01-30 10:52:00,
2013-01-30 06:02:00,52.0,49.0,29.83,SW,221,7.0,-999.0,88,-99.99,,,-99.99,,2013-01-30 11:02:00,
2013-01-30 06:11:00,52.0,49.0,29.83,SW,221,7.0,-999.0,88,-99.99,,,-99.99,,2013-01-30 11:11:00,
2013-01-30 06:22:00,53.0,49.0,29.82,SSW,209,7.0,-999.0,86,-99.99,,,-99.99,,2013-01-30 11:22:00,
2013-01-30 06:33:00,55.0,50.0,29.80,SSE,166,13.0,-999.0,84,-99.99,,,-99.99,,2013-01-30 11:33:00,
2013-01-30 06:42:00,55.0,50.0,29.80,SSE,166,13.0,-999.0,84,-99.99,,,-99.99,,2013-01-30 11:42:00,
2013-01-30 06:52:00,55.0,50.0,29.79,SSW,194,10.0,-999.0,82,-99.99,,,-99.99,,2013-01-30 11:52:00,
2013-01-30 07:02:00,56.0,50.0,29.79,WSW,246,10.0,-999.0,80,-99.99,,,-99.99,,2013-01-30 12:02:00,
2013-01-30 07:12:00,56.0,50.0,29.79,WSW,246,10.0,-999.0,80,-99.99,,,-99.99,,2013-01-30 12:12:00,
2013-01-30 07:22:00,55.0,49.0,29.77,WSW,242,11.0,-999.0,81,-99.99,,,-99.99,,2013-01-30 12:22:00,
2013-01-30 07:33:00,55.0,50.0,29.76,SE,130,10.0,-999.0,82,-99.99,,,-99.99,,2013-01-30 12:33:00,
2013-01-30 07:43:00,55.0,50.0,29.76,SE,130,10.0,-999.0,82,-99.99,,,-99.99,,2013-01-30 12:43:00,
2013-01-30 08:03:00,54.0,48.0,29.76,SW,223,14.0,-999.0,81,-99.99,,,-99.99,,2013-01-30 13:03:00,
2013-01-30 08:12:00,54.0,48.0,29.76,SW,223,14.0,-999.0,81,-99.99,,,-99.99,,2013-01-30 13:12:00,
2013-01-30 08:23:00,54.0,48.0,29.76,South,171,12.0,-999.0,81,-99.99,,,-99.99,,2013-01-30 13:23:00,
2013-01-30 08:33:00,54.0,49.0,29.75,WSW,237,10.0,-999.0,82,-99.99,,,-99.99,,2013-01-30 13:33:00,
2013-01-30 08:43:00,54.0,49.0,29.75,WSW,237,10.0,-999.0,82,-99.99,,,-99.99,,2013-01-30 13:43:00,
2013-01-30 08:52:00,54.0,49.0,29.74,South,173,9.0,-999.0,83,-99.99,,,-99.99,,2013-01-30 13:52:00,
2013-01-30 09:03:00,54.0,49.0,29.74,South,184,8.0,-999.0,82,-99.99,,,-99.99,,2013-01-30 14:03:00,
2013-01-30 09:12:00,54.0,49.0,29.74,South,184,8.0,-999.0,82,-99.99,,,-99.99,,2013-01-30 14:12:00,
2013-01-30 09:23:00,54.0,49.0,29.73,South,185,8.0,-999.0,82,-99.99,,,-99.99,,2013-01-30 14:23:00,
2013-01-30 09:33:00,54.0,49.0,29.71,WSW,239,7.0,-999.0,84,-99.99,,,-99.99,,2013-01-30 14:33:00,
2013-01-30 09:42:00,54.0,49.0,29.71,WSW,239,7.0,-999.0,84,-99.99,,,-99.99,,2013-01-30 14:42:00,
2013-01-30 09:52:00,55.0,50.0,29.72,SSW,211,10.0,-999.0,83,-99.99,,,-99.99,,2013-01-30 14:52:00,
2013-01-30 10:03:00,56.0,51.0,29.71,West,280,7.0,-999.0,82,-99.99,,,-99.99,,2013-01-30 15:03:00,
2013-01-30 10:12:00,56.0,51.0,29.71,West,280,7.0,-999.0,82,-99.99,,,-99.99,,2013-01-30 15:12:00,
2013-01-30 10:23:00,56.0,51.0,29.70,West,278,8.0,-999.0,82,-99.99,,,-99.99,,2013-01-30 15:23:00,
2013-01-30 10:33:00,56.0,51.0,29.69,WSW,251,7.0,-999.0,83,-99.99,,,-99.99,,2013-01-30 15:33:00,
2013-01-30 10:43:00,56.0,51.0,29.69,WSW,251,7.0,-999.0,83,-99.99,,,-99.99,,2013-01-30 15:43:00,
2013-01-30 10:53:00,58.0,52.0,29.67,SSW,192,9.0,-999.0,81,-99.99,,,-99.99,,2013-01-30 15:53:00,
2013-01-30 11:03:00,60.0,53.0,29.67,SSW,212,8.0,-999.0,77,-99.99,,,-99.99,,2013-01-30 16:03:00,
2013-01-30 11:12:00,60.0,53.0,29.67,SSW,212,8.0,-999.0,77,-99.99,,,-99.99,,2013-01-30 16:12:00,
2013-01-30 11:23:00,60.0,53.0,29.66,SW,215,8.0,-999.0,77,-99.99,,,-99.99,,2013-01-30 16:23:00,
2013-01-30 11:32:00,60.0,53.0,29.65,WSW,257,8.0,-999.0,77,-99.99,,,-99.99,,2013-01-30 16:32:00,
2013-01-30 11:42:00,60.0,53.0,29.65,WSW,257,8.0,-999.0,77,-99.99,,,-99.99,,2013-01-30 16:42:00,
2013-01-30 11:52:00,60.0,53.0,29.65,WSW,257,8.0,-999.0,77,-99.99,,,-99.99,,2013-01-30 16:52:00,
2013-01-30 12:02:00,60.0,52.0,29.62,SSW,194,10.0,-999.0,76,-99.99,,,-99.99,,2013-01-30 17:02:00,
2013-01-30 12:13:00,60.0,52.0,29.62,SSW,194,10.0,-999.0,76,-99.99,,,-99.99,,2013-01-30 17:13:00,
2013-01-30 12:23:00,58.0,52.0,29.61,South,190,11.0,-999.0,79,-99.99,,,-99.99,,2013-01-30 17:23:00,
2013-01-30 12:33:00,57.0,51.0,29.60,WSW,252,11.0,-999.0,81,-99.99,,,-99.99,,2013-01-30 17:33:00,
2013-01-30 12:43:00,57.0,51.0,29.60,WSW,252,11.0,-999.0,81,-99.99,,,-99.99,,2013-01-30 17:43:00,
2013-01-30 12:53:00,57.0,51.0,29.60,SSW,200,11.0,-999.0,81,-99.99,,,-99.99,,2013-01-30 17:53:00,
2013-01-30 13:03:00,56.0,51.0,29.60,SW,218,11.0,-999.0,82,-99.99,,,-99.99,,2013-01-30 18:03:00,
2013-01-30 13:13:00,56.0,51.0,29.60,SW,218,11.0,-999.0,82,-99.99,,,-99.99,,2013-01-30 18:13:00,
2013-01-30 13:23:00,56.0,51.0,29.58,South,178,13.0,-999.0,84,-99.99,,,-99.99,,2013-01-30 18:23:00,
2013-01-30 13:33:00,56.0,51.0,29.56,SSW,196,11.0,-999.0,84,-99.99,,,-99.99,,2013-01-30 18:33:00,
2013-01-30 13:43:00,56.0,51.0,29.56,SSW,196,11.0,-999.0,84,-99.99,,,-99.99,,2013-01-30 18:43:00,
2013-01-30 13:52:00,56.0,51.0,29.54,South,190,13.0,-999.0,84,-99.99,,,-99.99,,2013-01-30 18:52:00,
2013-01-30 14:03:00,56.0,52.0,29.54,SSE,168,12.0,-999.0,86,-99.99,,,-99.99,,2013-01-30 19:03:00,
2013-01-30 14:22:00,56.0,52.0,29.54,SSW,213,11.0,-999.0,86,-99.99,,,-99.99,,2013-01-30 19:22:00,
2013-01-30 14:33:00,56.0,52.0,29.55,SW,228,11.0,-999.0,87,-99.99,,,-99.99,,2013-01-30 19:33:00,
2013-01-30 14:43:00,56.0,52.0,29.55,SW,228,11.0,-999.0,87,-99.99,,,-99.99,,2013-01-30 19:43:00,
2013-01-30 14:52:00,56.0,52.0,29.54,SW,217,10.0,-999.0,87,-99.99,,,-99.99,,2013-01-30 19:52:00,
2013-01-30 15:03:00,56.0,52.0,29.53,SW,236,10.0,-999.0,86,-99.99,,,-99.99,,2013-01-30 20:03:00,
2013-01-30 15:12:00,56.0,52.0,29.53,SW,236,10.0,-999.0,86,-99.99,,,-99.99,,2013-01-30 20:12:00,
2013-01-30 15:22:00,57.0,53.0,29.52,South,186,10.0,-999.0,86,-99.99,,,-99.99,,2013-01-30 20:22:00,
2013-01-30 15:33:00,57.0,53.0,29.52,SW,221,12.0,-999.0,87,-99.99,,,-99.99,,2013-01-30 20:33:00,
2013-01-30 15:42:00,57.0,53.0,29.52,SW,221,12.0,-999.0,87,-99.99,,,-99.99,,2013-01-30 20:42:00,
2013-01-30 15:52:00,56.0,52.0,29.52,WSW,242,9.0,-999.0,87,-99.99,,,-99.99,,2013-01-30 20:52:00,
2013-01-30 16:04:00,56.0,52.0,29.52,WSW,242,9.0,-999.0,87,-99.99,,,-99.99,,2013-01-30 21:04:00,
2013-01-30 16:12:00,56.0,52.0,29.52,WSW,242,9.0,-999.0,87,-99.99,,,-99.99,,2013-01-30 21:12:00,
2013-01-30 16:23:00,56.0,52.0,29.53,SSW,209,8.0,-999.0,88,-99.99,,,-99.99,,2013-01-30 21:23:00,
2013-01-30 16:32:00,56.0,53.0,29.53,WSW,244,7.0,-999.0,89,-99.99,,,-99.99,,2013-01-30 21:32:00,
2013-01-30 16:42:00,56.0,53.0,29.53,WSW,244,7.0,-999.0,89,-99.99,,,-99.99,,2013-01-30 21:42:00,
2013-01-30 16:52:00,55.0,52.0,29.52,SSW,200,6.0,-999.0,89,-99.99,,,-99.99,,2013-01-30 21:52:00,
2013-01-30 17:03:00,55.0,52.0,29.53,SSW,196,6.0,-999.0,89,-99.99,,,-99.99,,2013-01-30 22:03:00,
2013-01-30 17:12:00,55.0,52.0,29.53,SSW,196,6.0,-999.0,89,-99.99,,,-99.99,,2013-01-30 22:12:00,
2013-01-30 17:22:00,55.0,52.0,29.53,South,186,6.0,-999.0,89,-99.99,,,-99.99,,2013-01-30 22:22:00,
2013-01-30 17:32:00,55.0,52.0,29.52,SSW,204,4.0,-999.0,89,-99.99,,,-99.99,,2013-01-30 22:32:00,
2013-01-30 17:42:00,55.0,52.0,29.52,SSW,204,4.0,-999.0,89,-99.99,,,-99.99,,2013-01-30 22:42:00,
2013-01-30 17:52:00,55.0,52.0,29.51,SSW,210,3.0,-999.0,89,-99.99,,,-99.99,,2013-01-30 22:52:00,
2013-01-30 18:02:00,55.0,52.0,29.50,SW,218,3.0,-999.0,88,-99.99,,,-99.99,,2013-01-30 23:02:00,
2013-01-30 18:12:00,55.0,52.0,29.50,SW,218,3.0,-999.0,88,-99.99,,,-99.99,,2013-01-30 23:12:00,
2013-01-30 18:22:00,55.0,52.0,29.52,WSW,241,3.0,-999.0,88,-99.99,,,-99.99,,2013-01-30 23:22:00,
2013-01-30 18:33:00,55.0,52.0,29.52,South,182,4.0,-999.0,88,-99.99,,,-99.99,,2013-01-30 23:33:00,
2013-01-30 18:42:00,55.0,52.0,29.52,South,182,4.0,-999.0,88,-99.99,,,-99.99,,2013-01-30 23:42:00,
2013-01-30 18:52:00,55.0,52.0,29.52,SSW,211,3.0,-999.0,88,-99.99,,,-99.99,,2013-01-30 23:52:00,
2013-01-30 19:02:00,54.0,51.0,29.51,South,178,3.0,-999.0,89,-99.99,,,-99.99,,2013-01-31 00:02:00,
2013-01-30 19:11:00,54.0,51.0,29.51,South,178,3.0,-999.0,89,-99.99,,,-99.99,,2013-01-31 00:11:00,
2013-01-30 19:22:00,54.0,51.0,29.51,South,178,3.0,-999.0,89,-99.99,,,-99.99,,2013-01-31 00:22:00,
2013-01-30 19:32:00,54.0,51.0,29.50,South,174,3.0,-999.0,90,-99.99,,,-99.99,,2013-01-31 00:32:00,
2013-01-30 19:42:00,54.0,51.0,29.50,South,174,3.0,-999.0,90,-99.99,,,-99.99,,2013-01-31 00:42:00,
2013-01-30 19:53:00,54.0,51.0,29.49,SW,221,2.0,-999.0,91,-99.99,,,-99.99,,2013-01-31 00:53:00,
2013-01-30 20:02:00,53.0,50.0,29.50,SW,221,1.0,-999.0,91,-99.99,,,-99.99,,2013-01-31 01:02:00,
2013-01-30 20:12:00,53.0,50.0,29.50,SW,221,1.0,-999.0,91,-99.99,,,-99.99,,2013-01-31 01:12:00,
2013-01-30 20:22:00,53.0,50.0,29.49,SSW,200,3.0,-999.0,91,-99.99,,,-99.99,,2013-01-31 01:22:00,
2013-01-30 20:32:00,53.0,50.0,29.47,SW,220,3.0,-999.0,91,-99.99,,,-99.99,,2013-01-31 01:32:00,
2013-01-30 20:42:00,53.0,50.0,29.47,SW,220,3.0,-999.0,91,-99.99,,,-99.99,,2013-01-31 01:42:00,
2013-01-30 20:52:00,53.0,50.0,29.47,SW,219,3.0,-999.0,91,-99.99,,,-99.99,,2013-01-31 01:52:00,
2013-01-30 21:01:00,53.0,50.0,29.47,South,190,2.0,-999.0,90,-99.99,,,-99.99,,2013-01-31 02:01:00,
2013-01-30 21:12:00,53.0,50.0,29.47,South,190,2.0,-999.0,90,-99.99,,,-99.99,,2013-01-31 02:12:00,
2013-01-30 21:22:00,53.0,50.0,29.46,South,188,3.0,-999.0,90,-99.99,,,-99.99,,2013-01-31 02:22:00,
2013-01-30 21:32:00,53.0,50.0,29.45,SSW,205,2.0,-999.0,89,-99.99,,,-99.99,,2013-01-31 02:32:00,
2013-01-30 21:42:00,53.0,50.0,29.45,SSW,205,2.0,-999.0,89,-99.99,,,-99.99,,2013-01-31 02:42:00,
2013-01-30 21:52:00,53.0,50.0,29.45,SSW,205,2.0,-999.0,89,-99.99,,,-99.99,,2013-01-31 02:52:00,
2013-01-30 22:03:00,53.0,50.0,29.41,West,260,2.0,-999.0,89,-99.99,,,-99.99,,2013-01-31 03:03:00,
2013-01-30 22:11:00,53.0,50.0,29.41,West,260,2.0,-999.0,89,-99.99,,,-99.99,,2013-01-31 03:11:00,
2013-01-30 22:22:00,53.0,50.0,29.40,NE,38,7.0,-999.0,88,-99.99,,,-99.99,,2013-01-31 03:22:00,
2013-01-30 22:32:00,53.0,50.0,29.40,SSW,195,5.0,-999.0,88,-99.99,,,-99.99,,2013-01-31 03:32:00,
2013-01-30 22:42:00,53.0,50.0,29.40,SSW,195,5.0,-999.0,88,-99.99,,,-99.99,,2013-01-31 03:42:00,
2013-01-30 22:51:00,53.0,50.0,29.39,SSW,200,3.0,-999.0,88,-99.99,,,-99.99,,2013-01-31 03:51:00,
2013-01-30 23:02:00,53.0,50.0,29.37,SE,142,4.0,-999.0,89,-99.99,,,-99.99,,2013-01-31 04:02:00,
2013-01-30 23:11:00,53.0,50.0,29.37,SE,142,4.0,-999.0,89,-99.99,,,-99.99,,2013-01-31 04:11:00,
2013-01-30 23:22:00,52.0,49.0,29.37,South,189,3.0,-999.0,89,-99.99,,,-99.99,,2013-01-31 04:22:00,
2013-01-30 23:32:00,52.0,49.0,29.35,South,181,4.0,-999.0,89,-99.99,,,-99.99,,2013-01-31 04:32:00,
2013-01-30 23:42:00,52.0,49.0,29.35,South,181,4.0,-999.0,89,-99.99,,,-99.99,,2013-01-31 04:42:00,
2013-01-30 23:51:00,52.0,49.0,29.33,East,92,5.0,-999.0,89,-99.99,,,-99.99,,2013-01-31 04:51:00,